Regional Weather Roundup
Issued by NWS Newport/Morehead, NC

Current Version | Previous Version | Graphics & Text | Print | Product List | Glossary Off
Versions: 1 2 3 4 5 6 7 8 9 10 11 12 13 14 15 16 17 18 19 20 21 22 23 24 25 26 27 28 29 30 31 32 33 34 35 36 37 38 39 40 41 42 43 44 45 46 47 48 49 50

000
ASUS42 KMHX 060425
RWRMHX
WEATHER ROUNDUP FOR EASTERN NORTH CAROLINA
NATIONAL WEATHER SERVICE NEWPORT/MOREHEAD CITY NC
1200 AM EDT MON JUL 06 2015

NOTE: "FAIR" INDICATES FEW OR NO CLOUDS BELOW 12,000 FEET
WITH NO SIGNIFICANT WEATHER AND/OR OBSTRUCTIONS TO VISIBILITY

NCZ015>017-031-032-045>047-102-103-060500-
NORTH COAST

CITY           SKY/WX    TMP DP  RH WIND       PRES   REMARKS
EDENTON        MOCLDY    77  72  82 CALM      30.11F
ELIZABETH CITY FOG       76  72  87 SW3       30.12S VSB 1/2
KITTY HAWK     PTCLDY    78  73  84 SW5       30.11F
MANTEO         CLEAR     78  73  84 SW12      30.12F

$$

NCZ045>047-081-094-103-104-060500-
CENTRAL COAST

CITY           SKY/WX    TMP DP  RH WIND       PRES   REMARKS
FRISCO         CLEAR     77  75  93 SW9       30.14F
SWANQUARTER      N/A     81 N/A N/A SW14      30.09S

$$

NCZ095-097-098-100-101-060500-
SOUTHERN COAST

CITY           SKY/WX    TMP DP  RH WIND       PRES   REMARKS
BEAUFORT       PTCLDY    79  76  90 SW10      30.13F
CEDAR ISLAND     N/A     79 N/A N/A S6G12     30.15F
JACKSONVILLE   PTCLDY    77  72  84 CALM      30.11F
PINEY ISLAND   PTCLDY   N/A N/A N/A S7        30.12F
WILMINGTON     CLEAR     79  74  84 S10       30.11F


$$

NCZ011>013-027>030-043-044-078>080-089-090>093-098-060500-
COASTAL PLAIN

CITY           SKY/WX    TMP DP  RH WIND       PRES   REMARKS
AHOSKIE        CLOUDY   N/A N/A N/A CALM      30.12S
CLINTON        PTCLDY    75  73  94 CALM      30.11F
ELIZABETHTOWN  PTCLDY    75  73  92 CALM      30.11S
GOLDSBORO      MOCLDY    79  73  82 S3        30.09F
GREENVILLE     CLOUDY    79  75  89 SW8       30.12S
HAVELOCK       CLEAR     78  74  87 S6        30.13F
KENANSVILLE    PTCLDY    75  70  84 CALM      30.13S
KINSTON        CLOUDY    78  71  79 SW6       30.12S
NEW BERN       PTCLDY    78  74  87 S6        30.13F
RICHLANDS      PTCLDY    73  66  78 S3        30.12S
ROCKY MOUNT    CLOUDY    72  70  93 NE5       30.12F
WASHINGTON     CLOUDY    77  73  87 S6        30.11F
WHITEVILLE     MOCLDY    77  73  86 S5        30.11S

$$

AMZ130-135-150-152-154-156-158-170-250-252-270-ANZ085-086-088-633-658-670-060500-
MARINE OBSERVATIONS

STATION/POSITION TIME  TEMP    WIND        PRES    WAVE   SWELL
                       AIR SEA DIR/SP/G            HT/PER HT/PER
                 (UTC) (F)     (DEG/KT/KT) (MB)    (FT/S) (FT/S)
CHESAPEAKE LIGHT 0400   72     340/ 18/ 19 1020.7
64 E VA BEACH    0350   78 78  160/ 10/ 12 1019.9    3/ 6   2/ 6
DUCK             0400   80 77  220/ 14/ 15   N/A
2 E DUCK         0311      78                N/A     2/14
OREGON INLET     0400   81 83  210/ 14/ 17 1019.8
13E OREGON INLT  0400      78                N/A     3/ 9   2/13
HATTERAS CG      0400   79 81  210/  8/ 12 1020.2
DIAMOND BUOY     0350   81 81  220/ 14/ 16 1020.4    3/ 9   2/ 9
CAPE LOOKOUT     0400   79     200/ 11/ 13 1019.9
BEAUFORT LAB     0400   80 82  210/  9/ 12 1019.5
30 SE NEW RVR IN NOT AVBL
27 SE WRIGHTSVLE 0400      80  210/ 10/ 12   N/A
5 SE WRIGHTSVLE  0308   80 78  210/ 12/ 16 1020.0
225 S CAPE HAT   0350   79 80  250/ 16/ 17 1023.2    4/ 8   2/ 8
41 SE CHARLESTON 0350   81 82  200/ 10/ 12 1019.2    3/ 4   2/ 9

$$


USA.gov is the U.S. government's official web portal to all federal, state and local government web resources and services.